Погода Усть-Юдома

Погода Усть-Юдома : погода сейчас, прогноз погоды и архив. Всё, что Вы хотите узнать о погоде Усть-Юдома!

Хотите узнать прогноз погоды Усть-Юдома? Тогда Вам сюда: Погода Усть-Юдома

Поиск расширенной информации на нашем сайте:

Другие новости

Новости СМИ2

Главная страница сайта

Новости сайта

03.07.2017

Напоминаем, что на нашем специализированном сайте Метеоцентр.Азия вы можете получить высокодетализированные автоматические прогнозы погоды по пунктам России, СНГ и мира в авиационном формате (включающие направление и скорость ветра, видимость, явления погоды, количество и форму облачности, нижнюю и верхнюю границу облачности).

Рекомендуем: предлагаются помещения арендовать офис в бц Ректорский дом у метро Тверская на выгодных условиях

Погода Усть-Юдома - сегодня

Время (UTC), дата Ветер
(°,м/с) 
Видим.   Явления Облачность Т
(°С)
Тd
(°С)
f(%) Тe
(°С)
Pmin
(гПа)
dP
(гПа)
Po
(мм)
O2
(г/м3)
Тmin Tmax R s Состояние
почвы
09 19.07.18 360 (С) 20000 м    ясно 
+22.3 +5.6 34 +22  1010  -0.9  739  274    +23       
12 19.07.18 тихо ()   10 км  дым  3/0 верхняя 
[Ci fib]
+18.2 +7.8 51 +18  1010.5  0.1  739  278           
15 19.07.18 тихо ()   10 км  дым  1/0 верхняя 
[Ci fib]
+8 +6.9 93 +8  1012.2  0.8  740  288           
18 19.07.18 тихо ()   2000 м  туман  ясно 
+4.3 +4.1 99 +4  1012.6  0.1  740  293           
03 20.07.18 140 (ЮВ) 20000 м    8/0 верхняя 
[Cs]
+24.6 +5.6 29 +25  1008.4  -1.7  738  272           
06 20.07.18 140 (ЮВ) 20000 м    8/0 верхняя 
[Cs]
+25.2 +5.8 29 +25  1007  -1.4  737  271           
12 20.07.18 тихо ()   20000 м    10/0 средняя, верхняя 
[As trans|Ci fib]
+18.9 +9.9 56 +20  1008  0.6  737  276           
15 20.07.18 тихо ()   20000 м    10/0 средняя, верхняя 
[As trans|Ci fib]
+15.5 +11 75 +18  1009.2  738  279           
18 20.07.18 тихо ()   20000 м    6/0 средняя 
[Ac trans]
+8.2 +5.3 82 +8  1010.3  0.3  738  288           
21 20.07.18 тихо ()   20000 м    9/0 верхняя 
[Cs]
+9.2 +8.2 93 +9  1010.9  0.7  739  287  +7.7        сухая 
00 21.07.18 тихо ()   20000 м    6/0 верхняя 
[Ci fib]
+15.6 +10.3 71 +17  1012.6  0.4  739  280           
03 21.07.18 тихо ()   20000 м    1/0 верхняя 
[Ci fib]
+25.1 +9.9 38 +26  1008.7  -1.1  738  271           
06 21.07.18 160 (Ю) 20000 м    ясно 
+28.3 +5.2 23 +28  1007.1  -1.4  737  268           
09 21.07.18 090 (В) 20000 м    ясно 
+28.9 +3 19 +29  1005.9  -1  737  268    +29.4       
12 21.07.18 тихо ()   20000 м    4/0 верхняя 
[Ci fib]
+21.7 +6.1 36 +22  1006.6  0.1  737  274           
15 21.07.18 090 (В) 20000 м    4/0 верхняя 
[Ci fib]
+14.7 +4.6 51 +16  1007.7  0.4  737  281           
18 21.07.18 тихо ()   20000 м    6/0 верхняя 
[Ci]
+9.5 +5.6 77 +10  1008.4  0.2  737  286           
00 22.07.18 360 (С) 20000 м    8/0 верхняя 
[Ci fib]
+19.3 +9.3 52 +22  1005.3  -1.3  736  275           
03 22.07.18 180 (Ю) 20000 м    4/0 верхняя 
[Ci fib]
+28.1 +2.4 19 +28  1002.6  -2  734  268           
06 22.07.18 140 (ЮВ) 20000 м    8/0 средняя, верхняя 
[Ac trans|Ci fib]
+28.9 +6.3 24 +29  999.9  -2.5  728  264           
12 22.07.18 180 (Ю) 20000 м    10/0 средняя, верхняя 
[As op|Cs]
+21 +6.1 38 +21  998.4  -0.9  731  272           
15 22.07.18 150 (ЮВ) 20000 м    10/0 средняя, верхняя 
[Ac cuf|Cs]
+13.4 +4 53 +13  999.7  0.2  731  280           
21 22.07.18 тихо ()   20000 м    10/0 средняя, верхняя 
[As trans|Cs]
+10.9 +4.5 65 +11  999.9  -0.1  731  283  +10.6        сухая 
03 23.07.18 тихо ()   10 км  слаб. дождь  10/0 средняя 
[As op]
+14.2 +13.1 93 +20  1004.4  1.8  735  279           
06 23.07.18 тихо ()   20000 м  {дождь}  10/0 средняя 
[As op]
+12.6 +10.7 88 +15  1006.2  1.6  736  281           
Время (UTC), дата Ветер
(°,м/с) 
Видим.   Явления Облачность Т
(°С)
Тd
(°С)
f(%) Тe
(°С)
Pmin
(гПа)
dP
(гПа)
Po
(мм)
O2
(г/м3)
Тmin Tmax R s Состояние
почвы

Для получения пояснительной информации подведите курсор к названию столбца.

ПОГОДА Усть-Юдома - архив

Всё, что Вы хотите узнать о погоде Усть-Юдома - удобно и подробно!

Выберите нужную дату (начиная с 1 января 2015* года) и нажмите кнопку "Найти".
Будут отображены архивные сводки погоды по пункту Усть-Юдома, начиная с указанной даты.


Отображать данные в формате CSV (для использования в таблицах Excel)


Внимание! Наш архив погоды предназначен исключительно для личного некоммерческого использования в познавательных целях. Если Вам необходимы официальные справки о состоянии погоды (для производственных, юридических, коммерческих и т.п. целей), обращайтесь в органы Росгидромета.

*Примечание: данная дата относится к архиву по метеостанциям СССР (Россия, СНГ, Балтия).
Архив по метеостанциям Зарубежной Европы и Азии (кроме Китая) хранится 10 дней, по другим регионам земного шара (Китай, Африка, Америка, Австралия, Океания) - 1 день.

Усть-Юдома - район местоположения метеостанции


Название, широта, долгота, высота метеостанции:
Усть-Юдома 59.2°ш. 135.2°д. 212 м над ур. моря [Российская Федерация]

Дополнительная информация

В oтличие oт бoльшинства пoгoдных сайтoв мы публикуем пoдрoбную метеoинфoрмацию в детальнoм прoфессиoнальнoм фoрмате.

Характеристики температуры и влажнoсти вoздуха измеряются на высoте 2 м в тени вдали oт зданий и деревьев.
Скoрoсть ветра измеряется на высoте 10 м (на урoвне рoста челoвека скoрoсть ветра ниже в 1.5-2 раза). Если метеoстанция нахoдится в гoрoде или в лесу, тo скoрoсть ветра занижена на 2-4 м/с пo сравнению с oткрытым местoм. Скoрoсть ветра над акватoриями крупных рек и oзёр, а также на вершинах хoлмoв на 2-5 м/с выше, чем в oбычных услoвиях.
Атмoсфернoе давление в разных тoчках местнoсти мoжет значительнo oтличаться oт давления на метеoстанции, в зависимoсти oт услoвий рельефа (при пoдъёме на 10 м давление пoнижается примернo на 1 мм рт.ст.).